Overview Statistics Trail Chart Weather Telemetry Raw packets
 

This is the latest recevied weather packets stored in our database for station/object KQ4KX. If no packets are shown the sender has not sent any weather packets the latest 10 day(s).

<< 11 12 13 14 15 16 17 >>
Time Temp. Humidity Pressure Rain* Wind** Luminosity Snow
1788613637 26.67° C 96% 1015.2 hPa 0 mm - - -
1788613633 26.11° C 96% 1015.1 hPa 0 mm - - -
1788613632 30° C 85% 1014.7 hPa 0 mm - - -
1788613628 30° C 83% 1014.5 hPa 0 mm - - -
1788613085 27.22° C 95% 1015.2 hPa 0 mm - - -
1788612914 26.67° C 95% 1015.2 hPa 0 mm - - -
1788612785 26.67° C 95% 1015.2 hPa 0 mm - - -
1788612636 26.67° C 95% 1015.2 hPa 0 mm - - -
1788612485 26.67° C 95% 1015.2 hPa 0 mm - - -
1788612244 26.67° C 96% 1015.2 hPa 0 mm - - -
1788612155 26.67° C 96% 1015.2 hPa 0 mm - - -
1788611924 26.11° C 96% 1015.1 hPa 0 mm - - -
1788611826 26.11° C 96% 1015.1 hPa 0 mm - - -
1788611810 25° C 100% 1014.6 hPa 0 mm - - -
1788611659 26.11° C 98% 1015.2 hPa 0 mm - - -
1788611495 26.11° C 98% 1015.2 hPa 0 mm - - -
1788611334 26.11° C 98% 1015.1 hPa 0 mm - - -
1788611165 26.11° C 98% 1015.1 hPa 0 mm - - -
1788610865 25.56° C 98% 1015.1 hPa 0 mm - - -
1788610710 25.56° C 98% 1015.1 hPa 0 mm - - -
1788610565 25.56° C 98% 1015.1 hPa 0 mm - - -
1788609935 25.56° C 99% 1014.9 hPa 0 mm - - -
1788609635 25.56° C 99% 1015 hPa 0 mm - - -
1788609121 25° C 99% 1014.8 hPa 0 mm - - -
1788609006 25° C 99% 1014.8 hPa 0 mm - - -

* Rain latest hour (hover to see other rain measurements)
** Current wind speed in m/s (hover to see current wind gust speed)